Location: Clyde
(45.1830°S, 169.3170°E)
Time: 07:00:53
(UTC+12:00)

Cosmos 2333 Rocket - Pass Details

Date: 14 May 2021
Orbit: 839 x 862 km, 70.8° (Epoch: 20 June)

Event Time Altitude Azimuth Distance (km) Brightness Sun altitude
Rises 18:36:28 0° 319° (NW) 3,395 6.3 -12.7°
Reaches altitude 10° 18:38:59 10° 313° (NW) 2,466 5.6 -13.1°
Maximum altitude 18:44:28 49° 238° (WSW) 1,086 3.1 -14.1°
Drops below altitude 10° 18:50:01 10° 163° (SSE) 2,493 4.4 -15.0°
Enters shadow 18:51:54 - 158° (SSE) 3,182 4.9 -15.4°
